Meteo Giornale » Osservazioni meteo Italia » Cagliari-Elmas

ore: 00:50 - Osservazioni Meteo Cagliari-Elmas
Lat. 39° 15' N Lon. 9° 4' E Alt. 4 metri s.l.m.

sereno Europe/Rome

22 °C

Sereno

Temp. 24 Ore

17 °C

25 °C

Est/Sud-Est

25.9 Km/h

Dew point 19 °C

Umidità 83 %

Visibilità  10 Km

Il sole sorge alle ore 07:37

Il sole tramonta alle ore 18:38

Data e Ora Cielo e Fenomeni T °C DP °C Um. % Pres. hPa Vis. km Vento km/h
Oggi h: 00:50 sereno Sereno 22 19 83 1014 10 E/SE 25.9
Oggi h: 00:20 sereno Sereno 22 19 83 1014 10 E/SE 25.9
Ieri h: 23:50 sereno Sereno 22 19 83 1014 10 E/SE 29.6
Ieri h: 23:20 sereno Sereno 22 18 78 1013 10 E/SE 25.9
Ieri h: 22:50 sereno Sereno 22 18 78 1013 10 E/SE 29.6
Ieri h: 22:20 sereno Sereno 22 18 78 1014 10 E/SE 27.8
Ieri h: 21:50 sereno Sereno 22 17 73 1014 10 E/SE 24
Ieri h: 21:20 sereno Sereno 22 17 73 1014 10 SE 22.2
Ieri h: 20:50 sereno Sereno 22 17 73 1013 10 E/SE 24
Ieri h: 20:20 sereno Sereno 22 16 68 1013 10 SE 24
Ieri h: 19:50 sereno Sereno 22 16 68 1013 10 SE 22.2
Ieri h: 19:20 sereno Sereno 22 16 68 1013 10 SE 20.3
Ieri h: 18:50 sereno Sereno 22 17 73 1013 10 S/SE 16.7
Ieri h: 18:20 sereno Sereno 23 18 73 1013 10 S/SE 16.7
Ieri h: 17:50 poco_nuvoloso Poco Nuvoloso 23 18 73 1013 10 SE 20.3
Ieri h: 16:50 sereno Sereno 24 17 64 1013 10 SE 24
Ieri h: 16:20 poco_nuvoloso Poco Nuvoloso 24 18 69 1013 10 SE 27.8
Ieri h: 15:50 poco_nuvoloso Poco Nuvoloso 24 18 69 1013 10 SE 27.8
Ieri h: 15:20 poco_nuvoloso Poco Nuvoloso 24 18 69 1013 10 SE 27.8
Ieri h: 14:50 poco_nuvoloso Poco Nuvoloso 24 19 73 1014 10 S/SE 25.9
Ieri h: 14:20 poco_nuvoloso Poco Nuvoloso 24 19 73 1014 10 S/SE 25.9
Ieri h: 13:50 poco_nuvoloso Poco Nuvoloso 24 19 73 1014 10 S/SE 27.8
Ieri h: 13:20 poco_nuvoloso Poco Nuvoloso 24 19 73 1015 10 SE 31.5
Ieri h: 12:50 poco_nuvoloso Poco Nuvoloso 24 19 73 1015 10 SE 27.8
Ieri h: 12:20 poco_nuvoloso Poco Nuvoloso 24 19 73 1016 10 SE 29.6
Ieri h: 11:50 poco_nuvoloso Poco Nuvoloso 25 18 65 1015 10 SE 25.9
Ieri h: 11:20 poco_nuvoloso Poco Nuvoloso 24 18 69 1015 10 SE 25.9
Ieri h: 10:50 poco_nuvoloso Poco Nuvoloso 24 17 64 1015 10 SE 14.8
Ieri h: 10:20 poco_nuvoloso Poco Nuvoloso 23 17 68 1015 10 E/SE 7.4
Ieri h: 09:50 poco_nuvoloso Poco Nuvoloso 22 17 73 1015 10 N 5.5
Ieri h: 09:20 poco_nuvoloso Poco Nuvoloso 21 17 77 1015 10 N 5.5
Ieri h: 08:50 poco_nuvoloso Poco Nuvoloso 20 16 77 1015 10 E 11.1
Ieri h: 08:20 nuvoloso Nuvoloso 19 15 77 1015 10 E 11.1
Ieri h: 07:50 nuvoloso Nuvoloso 18 15 82 1015 10 E 7.4
Ieri h: 07:20 nuvoloso Nuvoloso 19 16 82 1015 10 E 11.1
Ieri h: 06:50 nuvoloso Nuvoloso 19 16 82 1015 10 E 11.1
Ieri h: 06:20 nuvoloso Nuvoloso 19 16 82 1015 10 E/SE 11.1
Ieri h: 05:50 nuvoloso Nuvoloso 18 16 88 1015 10 E/SE 11.1
Ieri h: 04:50 nuvoloso Nuvoloso 19 16 82 1015 10 E 13
Ieri h: 04:20 nuvoloso Nuvoloso 18 15 82 1015 10 E 11.1
Ieri h: 03:50 nuvoloso Nuvoloso 18 15 82 1016 10 E 9.3
Ieri h: 03:20 nuvoloso Nuvoloso 18 14 77 1016 10 E 9.3
Ieri h: 02:50 nuvoloso Nuvoloso 18 15 82 1016 10 E/SE 9.3
Ieri h: 02:20 poco_nuvoloso Poco Nuvoloso 17 14 82 1016 10 E 7.4
Ieri h: 01:50 poco_nuvoloso Poco Nuvoloso 17 14 82 1016 10 E 7.4